01-02-2023, 00:00:02,    255,    1.2,    3.2,   0.00,   0.00, 1020.4,   72.3, -999.0
01-02-2023, 00:00:12,    224,    2.8,    3.1,   0.00,   0.00, 1020.4,   72.4, -999.0
01-02-2023, 00:00:22,    242,    0.9,    3.2,   0.00,   0.00, 1020.3,   72.3, -999.0
01-02-2023, 00:00:32,    243,    1.2,    3.1,   0.00,   0.00, 1020.3,   72.4, -999.0
01-02-2023, 00:00:42,    242,    0.3,    3.1,   0.00,   0.00, 1020.3,   72.1, -999.0
01-02-2023, 00:00:52,    247,    0.4,    3.1,   0.00,   0.00, 1020.3,   72.1, -999.0
01-02-2023, 00:01:02,    256,    2.1,    3.2,   0.00,   0.00, 1020.4,   72.4, -999.0
01-02-2023, 00:01:12,    270,    3.7,    3.2,   0.00,   0.00, 1020.4,   72.4, -999.0
01-02-2023, 00:01:22,    266,    2.9,    3.2,   0.00,   0.00, 1020.4,   72.3, -999.0
01-02-2023, 00:01:32,    254,    2.7,    3.3,   0.00,   0.00, 1020.3,   72.3, -999.0
01-02-2023, 00:01:42,    238,    2.5,    3.2,   0.00,   0.00, 1020.3,   72.3, -999.0
01-02-2023, 00:01:52,    238,    0.1,    3.1,   0.00,   0.00, 1020.2,   72.0, -999.0
01-02-2023, 00:02:02,    238,    0.0,    3.0,   0.00,   0.00, 1020.2,   71.9, -999.0
01-02-2023, 00:02:12,    272,    0.0,    3.1,   0.00,   0.00, 1020.2,   72.0, -999.0
01-02-2023, 00:02:22,    234,    0.7,    3.2,   0.00,   0.00, 1020.3,   72.2, -999.0
01-02-2023, 00:02:32,    233,    0.2,    3.1,   0.00,   0.00, 1020.2,   72.1, -999.0
01-02-2023, 00:02:42,    275,    0.8,    3.1,   0.00,   0.00, 1020.2,   72.1, -999.0
01-02-2023, 00:02:52,    233,    1.4,    3.2,   0.00,   0.00, 1020.3,   72.4, -999.0
01-02-2023, 00:03:02,    237,    0.6,    3.2,   0.00,   0.00, 1020.3,   72.3, -999.0
01-02-2023, 00:03:12,    237,    0.1,    3.1,   0.00,   0.00, 1020.2,   72.0, -999.0
01-02-2023, 00:03:22,    254,    1.5,    3.2,   0.00,   0.00, 1020.3,   72.3, -999.0
01-02-2023, 00:03:32,    278,    1.8,    3.2,   0.00,   0.00, 1020.3,   72.3, -999.0
01-02-2023, 00:03:42,    190,    1.4,    3.2,   0.00,   0.00, 1020.3,   72.2, -999.0
01-02-2023, 00:03:52,    260,    0.5,    3.1,   0.00,   0.00, 1020.3,   72.2, -999.0
01-02-2023, 00:04:02,    273,    1.1,    3.2,   0.00,   0.00, 1020.3,   72.3, -999.0
01-02-2023, 00:04:12,    272,    0.0,    3.1,   0.00,   0.00, 1020.2,   72.0, -999.0
01-02-2023, 00:04:22,    239,    1.5,    2.9,   0.00,   0.00, 1020.3,   72.2, -999.0
01-02-2023, 00:04:32,    231,    1.0,    3.2,   0.00,   0.00, 1020.3,   72.3, -999.0
01-02-2023, 00:04:42,    249,    3.3,    3.2,   0.00,   0.00, 1020.3,   72.4, -999.0
01-02-2023, 00:04:52,    255,    3.6,    3.2,   0.00,   0.00, 1020.3,   72.2, -999.0
01-02-2023, 00:05:02,    228,    1.4,    3.2,   0.00,   0.00, 1020.3,   72.2, -999.0
01-02-2023, 00:05:12,    237,    0.7,    3.1,   0.00,   0.00, 1020.2,   72.2, -999.0
01-02-2023, 00:05:22,    238,    0.0,    3.1,   0.00,   0.00, 1020.1,   71.9, -999.0
01-02-2023, 00:05:32,    238,    0.0,    3.0,   0.00,   0.00, 1020.1,   71.8, -999.0
01-02-2023, 00:05:42,    216,    1.1,    3.1,   0.00,   0.00, 1020.2,   72.1, -999.0
01-02-2023, 00:05:52,    216,    0.4,    3.2,   0.00,   0.00, 1020.2,   72.0, -999.0
01-02-2023, 00:06:02,    226,    0.1,    3.1,   0.00,   0.00, 1020.1,   71.8, -999.0
01-02-2023, 00:06:12,    225,    0.0,    3.0,   0.00,   0.00, 1020.1,   71.7, -999.0
01-02-2023, 00:06:22,    265,    1.2,    3.0,   0.00,   0.00, 1020.2,   71.9, -999.0
01-02-2023, 00:06:32,    243,    3.1,    3.1,   0.00,   0.00, 1020.2,   72.1, -999.0
01-02-2023, 00:06:42,    251,    1.2,    3.2,   0.00,   0.00, 1020.2,   72.1, -999.0
01-02-2023, 00:06:52,    239,    1.5,    3.2,   0.00,   0.00, 1020.2,   72.1, -999.0
01-02-2023, 00:07:01,    224,    0.2,    3.1,   0.00,   0.00, 1020.1,   72.1, -999.0
01-02-2023, 00:07:12,    258,    1.7,    3.1,   0.00,   0.00, 1020.2,   72.1, -999.0
01-02-2023, 00:07:22,    236,    1.5,    3.2,   0.00,   0.00, 1020.2,   72.2, -999.0
01-02-2023, 00:07:32,    263,    0.7,    3.2,   0.00,   0.00, 1020.1,   72.3, -999.0
01-02-2023, 00:07:41,    253,    0.1,    3.1,   0.00,   0.00, 1020.1,   72.1, -999.0
01-02-2023, 00:07:52,    230,    1.3,    3.1,   0.00,   0.00, 1020.2,   72.3, -999.0
01-02-2023, 00:08:02,    251,    3.1,    3.2,   0.00,   0.00, 1020.2,   72.2, -999.0
01-02-2023, 00:08:11,    172,    1.8,    3.2,   0.00,   0.00, 1020.2,   72.2, -999.0
01-02-2023, 00:08:21,    259,    1.2,    3.2,   0.00,   0.00, 1020.2,   72.1, -999.0
01-02-2023, 00:08:32,    282,    2.2,    3.2,   0.00,   0.00, 1020.2,   72.2, -999.0
01-02-2023, 00:08:42,    263,    3.0,    3.2,   0.00,   0.00, 1020.2,   72.3, -999.0
01-02-2023, 00:08:51,    243,    3.0,    3.2,   0.00,   0.00, 1020.2,   72.2, -999.0
01-02-2023, 00:09:02,    262,    2.0,    3.1,   0.00,   0.00, 1020.2,   72.2, -999.0
01-02-2023, 00:09:12,    248,    0.2,    3.1,   0.00,   0.00, 1020.2,   72.0, -999.0
01-02-2023, 00:09:21,    279,    2.2,    3.1,   0.00,   0.00, 1020.3,   72.2, -999.0
01-02-2023, 00:09:31,    221,    3.1,    3.2,   0.00,   0.00, 1020.2,   72.2, -999.0
01-02-2023, 00:09:42,    257,    0.9,    3.2,   0.00,   0.00, 1020.2,   72.2, -999.0
01-02-2023, 00:09:51,    256,    1.1,    3.2,   0.00,   0.00, 1020.2,   72.2, -999.0
01-02-2023, 00:10:01,    261,    2.0,    3.1,   0.00,   0.00, 1020.2,   72.3, -999.0
01-02-2023, 00:10:11,    242,    2.1,    3.2,   0.00,   0.00, 1020.2,   72.2, -999.0
01-02-2023, 00:10:22,    246,    0.4,    3.1,   0.00,   0.00, 1020.2,   72.0, -999.0
01-02-2023, 00:10:31,    296,    0.0,    3.0,   0.00,   0.00, 1020.1,   71.8, -999.0
01-02-2023, 00:10:41,    327,    1.2,    3.1,   0.00,   0.00, 1020.2,   72.2, -999.0
01-02-2023, 00:10:51,    247,    2.1,    3.1,   0.00,   0.00, 1020.2,   72.1, -999.0
01-02-2023, 00:11:01,    233,    3.0,    3.2,   0.00,   0.00, 1020.3,   72.3, -999.0
01-02-2023, 00:11:11,    243,    1.1,    3.1,   0.00,   0.00, 1020.2,   72.2, -999.0
01-02-2023, 00:11:21,    235,    0.6,    3.1,   0.00,   0.00, 1020.2,   72.1, -999.0
01-02-2023, 00:11:31,    232,    2.4,    3.2,   0.00,   0.00, 1020.3,   72.3, -999.0
01-02-2023, 00:11:41,    232,    1.5,    3.2,   0.00,   0.00, 1020.3,   72.4, -999.0
01-02-2023, 00:11:51,    217,    1.4,    3.2,   0.00,   0.00, 1020.3,   72.4, -999.0
01-02-2023, 00:12:01,    232,    1.3,    3.2,   0.00,   0.00, 1020.3,   72.4, -999.0
01-02-2023, 00:12:11,    271,    1.1,    3.2,   0.00,   0.00, 1020.3,   72.4, -999.0
01-02-2023, 00:12:21,    227,    1.6,    3.2,   0.00,   0.00, 1020.3,   72.4, -999.0
01-02-2023, 00:12:31,    246,    0.5,    3.1,   0.00,   0.00, 1020.2,   72.2, -999.0
01-02-2023, 00:12:41,    259,    0.4,    3.1,   0.00,   0.00, 1020.3,   72.3, -999.0
01-02-2023, 00:12:51,    258,    0.1,    3.1,   0.00,   0.00, 1020.3,   72.1, -999.0
01-02-2023, 00:13:01,    260,    0.2,    3.0,   0.00,   0.00, 1020.2,   71.9, -999.0
01-02-2023, 00:13:11,    289,    1.7,    3.1,   0.00,   0.00, 1020.3,   72.1, -999.0
01-02-2023, 00:13:21,    271,    1.8,    3.1,   0.00,   0.00, 1020.3,   72.1, -999.0
01-02-2023, 00:13:31,    252,    1.2,    3.1,   0.00,   0.00, 1020.3,   72.2, -999.0
01-02-2023, 00:13:41,    244,    4.2,    3.1,   0.00,   0.00, 1020.3,   72.3, -999.0
01-02-2023, 00:13:51,    239,    2.3,    3.2,   0.00,   0.00, 1020.3,   72.4, -999.0
01-02-2023, 00:14:01,    227,    1.6,    3.2,   0.00,   0.00, 1020.3,   72.4, -999.0
01-02-2023, 00:14:11,    216,    1.8,    3.1,   0.00,   0.00, 1020.3,   72.4, -999.0
01-02-2023, 00:14:21,    254,    0.9,    3.0,   0.00,   0.00, 1020.3,   72.4, -999.0
01-02-2023, 00:14:31,    250,    1.1,    3.1,   0.00,   0.00, 1020.3,   72.4, -999.0
01-02-2023, 00:14:41,    249,    2.0,    3.0,   0.00,   0.00, 1020.3,   72.4, -999.0
01-02-2023, 00:14:51,    237,    1.6,    3.1,   0.00,   0.00, 1020.3,   72.4, -999.0
01-02-2023, 00:15:01,    230,    0.5,    3.1,   0.00,   0.00, 1020.3,   72.4, -999.0
01-02-2023, 00:15:11,    255,    1.7,    3.1,   0.00,   0.00, 1020.3,   72.5, -999.0
01-02-2023, 00:15:21,    269,    0.7,    3.1,   0.00,   0.00, 1020.3,   72.5, -999.0
01-02-2023, 00:15:31,    268,    1.8,    3.1,   0.00,   0.00, 1020.3,   72.4, -999.0
01-02-2023, 00:15:41,    246,    2.4,    3.0,   0.00,   0.00, 1020.3,   72.4, -999.0
01-02-2023, 00:15:51,    247,    2.3,    3.0,   0.00,   0.00, 1020.3,   72.5, -999.0
01-02-2023, 00:16:01,    236,    3.0,    3.2,   0.00,   0.00, 1020.3,   72.5, -999.0
01-02-2023, 00:16:11,    244,    3.3,    3.1,   0.00,   0.00, 1020.3,   72.5, -999.0
01-02-2023, 00:16:21,    264,    2.5,    3.1,   0.00,   0.00, 1020.3,   72.5, -999.0
01-02-2023, 00:16:31,    230,    1.4,    3.1,   0.00,   0.00, 1020.3,   72.4, -999.0
01-02-2023, 00:16:41,    251,    1.4,    3.2,   0.00,   0.00, 1020.3,   72.4, -999.0
01-02-2023, 00:16:51,    249,    0.2,    3.2,   0.00,   0.00, 1020.3,   72.5, -999.0
01-02-2023, 00:17:01,    249,    0.1,    3.1,   0.00,   0.00, 1020.2,   72.3, -999.0
01-02-2023, 00:17:11,    246,    0.0,    3.1,   0.00,   0.00, 1020.2,   72.2, -999.0
01-02-2023, 00:17:21,    247,    0.1,    3.0,   0.00,   0.00, 1020.2,   72.2, -999.0
01-02-2023, 00:17:31,    241,    2.0,    3.1,   0.00,   0.00, 1020.3,   72.5, -999.0
01-02-2023, 00:17:41,    247,    1.9,    3.2,   0.00,   0.00, 1020.3,   72.5, -999.0
01-02-2023, 00:17:50,    262,    1.7,    3.1,   0.00,   0.00, 1020.3,   72.4, -999.0
01-02-2023, 00:18:01,    253,    0.7,    3.1,   0.00,   0.00, 1020.3,   72.4, -999.0
01-02-2023, 00:18:11,    252,    1.7,    2.9,   0.00,   0.00, 1020.2,   72.1, -999.0
01-02-2023, 00:18:20,    256,    2.6,    3.1,   0.00,   0.00, 1020.3,   72.4, -999.0
01-02-2023, 00:18:30,    256,    0.0,    3.1,   0.00,   0.00, 1020.2,   72.1, -999.0
01-02-2023, 00:18:41,    251,    0.5,    3.0,   0.00,   0.00, 1020.2,   72.3, -999.0
01-02-2023, 00:18:51,    256,    1.4,    3.1,   0.00,   0.00, 1020.3,   72.4, -999.0
01-02-2023, 00:19:00,    273,    3.1,    3.1,   0.00,   0.00, 1020.3,   72.4, -999.0
01-02-2023, 00:19:10,    242,    1.5,    3.1,   0.00,   0.00, 1020.3,   72.4, -999.0
01-02-2023, 00:19:21,    265,    2.7,    3.1,   0.00,   0.00, 1020.3,   72.4, -999.0
01-02-2023, 00:19:30,    253,    2.9,    3.0,   0.00,   0.00, 1020.3,   72.4, -999.0
01-02-2023, 00:19:40,    264,    1.5,    3.1,   0.00,   0.00, 1020.3,   72.4, -999.0
01-02-2023, 00:19:50,    239,    1.7,    3.1,   0.00,   0.00, 1020.3,   72.4, -999.0
01-02-2023, 00:20:01,    248,    2.1,    3.1,   0.00,   0.00, 1020.3,   72.4, -999.0
01-02-2023, 00:20:10,    235,    2.6,    3.1,   0.00,   0.00, 1020.3,   72.5, -999.0
01-02-2023, 00:20:20,    255,    3.5,    3.1,   0.00,   0.00, 1020.3,   72.5, -999.0
01-02-2023, 00:20:31,    197,    0.8,    3.0,   0.00,   0.00, 1020.3,   72.5, -999.0
01-02-2023, 00:20:40,    208,    0.3,    3.1,   0.00,   0.00, 1020.2,   72.4, -999.0
01-02-2023, 00:20:50,    223,    1.6,    3.1,   0.00,   0.00, 1020.3,   72.5, -999.0
01-02-2023, 00:21:00,    230,    2.9,    3.1,   0.00,   0.00, 1020.3,   72.5, -999.0
01-02-2023, 00:21:10,    251,    2.3,    3.2,   0.00,   0.00, 1020.3,   72.4, -999.0
01-02-2023, 00:21:20,    245,    2.7,    3.2,   0.00,   0.00, 1020.2,   72.4, -999.0
01-02-2023, 00:21:30,    263,    1.5,    3.2,   0.00,   0.00, 1020.2,   72.3, -999.0
01-02-2023, 00:21:40,    237,    1.6,    3.2,   0.00,   0.00, 1020.2,   72.1, -999.0
01-02-2023, 00:21:50,    233,    2.9,    3.2,   0.00,   0.00, 1020.3,   72.1, -999.0
01-02-2023, 00:22:00,    243,    1.8,    3.2,   0.00,   0.00, 1020.2,   72.1, -999.0
01-02-2023, 00:22:10,    233,    3.0,    3.2,   0.00,   0.00, 1020.2,   72.2, -999.0
01-02-2023, 00:22:20,    239,    3.0,    3.2,   0.00,   0.00, 1020.2,   72.1, -999.0
01-02-2023, 00:22:30,    286,    2.9,    3.1,   0.00,   0.00, 1020.2,   72.1, -999.0
01-02-2023, 00:22:40,    239,    4.1,    3.2,   0.00,   0.00, 1020.2,   72.1, -999.0
01-02-2023, 00:22:50,    277,    2.8,    3.1,   0.00,   0.00, 1020.2,   72.1, -999.0
01-02-2023, 00:23:00,    257,    2.1,    3.1,   0.00,   0.00, 1020.2,   72.1, -999.0
01-02-2023, 00:23:10,    252,    2.2,    3.1,   0.00,   0.00, 1020.2,   72.1, -999.0
01-02-2023, 00:23:20,    230,    1.9,    3.2,   0.00,   0.00, 1020.2,   72.1, -999.0
01-02-2023, 00:23:30,    237,    1.3,    3.2,   0.00,   0.00, 1020.2,   72.1, -999.0
01-02-2023, 00:23:40,    234,    1.5,    3.2,   0.00,   0.00, 1020.2,   72.2, -999.0
01-02-2023, 00:23:50,    240,    2.7,    3.2,   0.00,   0.00, 1020.2,   72.2, -999.0
01-02-2023, 00:24:00,    255,    2.7,    3.2,   0.00,   0.00, 1020.2,   72.2, -999.0
01-02-2023, 00:24:10,    244,    3.6,    3.1,   0.00,   0.00, 1020.1,   72.2, -999.0
01-02-2023, 00:24:20,    230,    2.0,    3.1,   0.00,   0.00, 1020.2,   72.0, -999.0
01-02-2023, 00:24:30,    247,    2.1,    3.2,   0.00,   0.00, 1020.1,   72.1, -999.0
01-02-2023, 00:24:40,    266,    2.7,    3.2,   0.00,   0.00, 1020.2,   72.1, -999.0
01-02-2023, 00:24:50,    248,    1.5,    3.2,   0.00,   0.00, 1020.2,   72.0, -999.0
01-02-2023, 00:25:00,    244,    2.4,    3.1,   0.00,   0.00, 1020.1,   72.1, -999.0
01-02-2023, 00:25:10,    264,    2.4,    3.1,   0.00,   0.00, 1020.1,   72.0, -999.0
01-02-2023, 00:25:20,    255,    1.6,    3.1,   0.00,   0.00, 1020.1,   72.0, -999.0
01-02-2023, 00:25:30,    239,    0.9,    3.1,   0.00,   0.00, 1020.1,   72.0, -999.0
01-02-2023, 00:25:40,    255,    0.6,    3.1,   0.00,   0.00, 1020.0,   71.9, -999.0
01-02-2023, 00:25:50,    266,    2.3,    3.1,   0.00,   0.00, 1020.1,   72.0, -999.0
01-02-2023, 00:26:00,    199,    2.0,    3.1,   0.00,   0.00, 1020.1,   72.1, -999.0
01-02-2023, 00:26:10,    293,    0.7,    3.1,   0.00,   0.00, 1020.0,   72.0, -999.0
01-02-2023, 00:26:20,    246,    0.1,    3.0,   0.00,   0.00, 1020.0,   71.9, -999.0
01-02-2023, 00:26:30,    248,    1.0,    3.0,   0.00,   0.00, 1020.1,   72.1, -999.0
01-02-2023, 00:26:40,    283,    1.4,    3.1,   0.00,   0.00, 1020.1,   72.2, -999.0
01-02-2023, 00:26:50,    237,    0.5,    3.0,   0.00,   0.00, 1020.0,   71.8, -999.0
01-02-2023, 00:27:00,    262,    2.4,    3.1,   0.00,   0.00, 1020.1,   72.1, -999.0
01-02-2023, 00:27:10,    210,    0.6,    3.0,   0.00,   0.00, 1020.1,   72.1, -999.0
01-02-2023, 00:27:20,    248,    1.7,    3.1,   0.00,   0.00, 1020.1,   72.1, -999.0
01-02-2023, 00:27:30,    251,    1.4,    3.1,   0.00,   0.00, 1020.1,   72.2, -999.0
01-02-2023, 00:27:40,    255,    1.2,    3.1,   0.00,   0.00, 1020.1,   72.2, -999.0
01-02-2023, 00:27:50,    223,    1.1,    3.0,   0.00,   0.00, 1020.1,   72.3, -999.0
01-02-2023, 00:27:59,    275,    1.7,    3.0,   0.00,   0.00, 1020.2,   72.2, -999.0
01-02-2023, 00:28:10,    221,    2.2,    3.1,   0.00,   0.00, 1020.1,   72.2, -999.0
01-02-2023, 00:28:20,    235,    1.4,    3.1,   0.00,   0.00, 1020.1,   72.2, -999.0
01-02-2023, 00:28:30,    240,    1.5,    3.0,   0.00,   0.00, 1020.1,   72.3, -999.0
01-02-2023, 00:28:39,    257,    1.9,    3.1,   0.00,   0.00, 1020.1,   72.3, -999.0
01-02-2023, 00:28:50,    251,    2.7,    3.1,   0.00,   0.00, 1020.1,   72.2, -999.0
01-02-2023, 00:29:00,    268,    1.9,    3.1,   0.00,   0.00, 1020.1,   72.1, -999.0
01-02-2023, 00:29:09,    234,    1.3,    3.1,   0.00,   0.00, 1020.1,   72.2, -999.0
01-02-2023, 00:29:19,    251,    0.7,    3.0,   0.00,   0.00, 1020.0,   72.0, -999.0
01-02-2023, 00:29:30,    262,    1.3,    3.0,   0.00,   0.00, 1020.1,   72.3, -999.0
01-02-2023, 00:29:40,    242,    1.4,    3.1,   0.00,   0.00, 1020.1,   72.3, -999.0
01-02-2023, 00:29:49,    236,    2.3,    3.0,   0.00,   0.00, 1020.0,   72.3, -999.0
01-02-2023, 00:29:59,    266,    0.2,    3.0,   0.00,   0.00, 1019.9,   72.1, -999.0
01-02-2023, 00:30:10,    266,    0.0,    3.0,   0.00,   0.00, 1019.9,   71.9, -999.0
01-02-2023, 00:30:19,    268,    2.1,    3.0,   0.00,   0.00, 1020.0,   72.2, -999.0
01-02-2023, 00:30:29,    252,    2.8,    3.0,   0.00,   0.00, 1020.0,   72.2, -999.0
01-02-2023, 00:30:40,    238,    3.2,    3.1,   0.00,   0.00, 1020.1,   72.2, -999.0
01-02-2023, 00:30:50,    246,    1.9,    3.0,   0.00,   0.00, 1020.0,   72.3, -999.0
01-02-2023, 00:30:59,    245,    2.0,    3.1,   0.00,   0.00, 1020.0,   72.2, -999.0
01-02-2023, 00:31:09,    238,    1.8,    3.1,   0.00,   0.00, 1020.1,   72.2, -999.0
01-02-2023, 00:31:20,    256,    2.9,    3.1,   0.00,   0.00, 1020.1,   72.2, -999.0
01-02-2023, 00:31:29,    229,    2.6,    3.2,   0.00,   0.00, 1020.1,   72.2, -999.0
01-02-2023, 00:31:39,    206,    1.0,    3.1,   0.00,   0.00, 1020.1,   72.2, -999.0
01-02-2023, 00:31:49,    290,    0.9,    3.1,   0.00,   0.00, 1020.0,   72.2, -999.0
01-02-2023, 00:31:59,    282,    1.9,    3.1,   0.00,   0.00, 1020.1,   72.2, -999.0
01-02-2023, 00:32:09,    271,    1.5,    3.1,   0.00,   0.00, 1020.1,   72.3, -999.0
01-02-2023, 00:32:19,    270,    0.2,    3.0,   0.00,   0.00, 1020.0,   72.0, -999.0
01-02-2023, 00:32:29,    214,    0.8,    3.1,   0.00,   0.00, 1020.1,   72.1, -999.0
01-02-2023, 00:32:39,    235,    0.3,    3.0,   0.00,   0.00, 1020.0,   72.0, -999.0
01-02-2023, 00:32:49,    241,    1.1,    3.1,   0.00,   0.00, 1020.0,   72.1, -999.0
01-02-2023, 00:32:59,    257,    2.9,    3.1,   0.00,   0.00, 1020.0,   72.2, -999.0
01-02-2023, 00:33:09,    247,    0.7,    3.1,   0.00,   0.00, 1020.0,   72.1, -999.0
01-02-2023, 00:33:19,    230,    1.9,    3.1,   0.00,   0.00, 1020.0,   72.2, -999.0
01-02-2023, 00:33:29,    243,    2.8,    3.1,   0.00,   0.00, 1020.0,   72.2, -999.0
01-02-2023, 00:33:39,    231,    2.0,    3.1,   0.00,   0.00, 1020.1,   72.2, -999.0
01-02-2023, 00:33:49,    245,    2.2,    3.1,   0.00,   0.00, 1020.0,   72.1, -999.0
01-02-2023, 00:33:59,    241,    2.5,    3.1,   0.00,   0.00, 1020.0,   72.0, -999.0
01-02-2023, 00:34:09,    244,    1.6,    3.1,   0.00,   0.00, 1020.0,   72.1, -999.0
01-02-2023, 00:34:19,    263,    1.7,    3.1,   0.00,   0.00, 1020.0,   72.0, -999.0
01-02-2023, 00:34:29,    257,    1.5,    3.1,   0.00,   0.00, 1020.0,   72.0, -999.0
01-02-2023, 00:34:39,    268,    1.4,    3.2,   0.00,   0.00, 1020.1,   72.0, -999.0
01-02-2023, 00:34:49,    272,    2.7,    3.1,   0.00,   0.00, 1020.0,   72.0, -999.0
01-02-2023, 00:34:59,    228,    1.0,    3.1,   0.00,   0.00, 1020.0,   71.9, -999.0
01-02-2023, 00:35:09,    250,    2.2,    3.1,   0.00,   0.00, 1020.1,   71.9, -999.0
01-02-2023, 00:35:19,    264,    3.8,    3.1,   0.00,   0.00, 1020.1,   72.0, -999.0
01-02-2023, 00:35:29,    256,    1.1,    3.1,   0.00,   0.00, 1020.0,   72.0, -999.0
01-02-2023, 00:35:39,    267,    0.1,    3.0,   0.00,   0.00, 1020.0,   71.8, -999.0
01-02-2023, 00:35:49,    277,    2.9,    3.1,   0.00,   0.00, 1020.0,   72.1, -999.0
01-02-2023, 00:35:59,    279,    1.5,    3.1,   0.00,   0.00, 1020.1,   72.1, -999.0
01-02-2023, 00:36:09,    241,    3.2,    3.2,   0.00,   0.00, 1020.1,   71.9, -999.0
01-02-2023, 00:36:19,    270,    3.5,    3.1,   0.00,   0.00, 1020.1,   72.0, -999.0
01-02-2023, 00:36:29,    256,    3.3,    3.1,   0.00,   0.00, 1020.1,   72.1, -999.0
01-02-2023, 00:36:39,    248,    1.8,    3.2,   0.00,   0.00, 1020.1,   72.1, -999.0
01-02-2023, 00:36:49,    245,    0.1,    3.1,   0.00,   0.00, 1020.0,   71.8, -999.0
01-02-2023, 00:36:59,    251,    1.7,    3.1,   0.00,   0.00, 1020.0,   71.9, -999.0
01-02-2023, 00:37:09,    258,    2.1,    3.2,   0.00,   0.00, 1020.0,   72.1, -999.0
01-02-2023, 00:37:19,    226,    1.7,    3.2,   0.00,   0.00, 1020.0,   72.0, -999.0
01-02-2023, 00:37:29,    256,    1.4,    3.2,   0.00,   0.00, 1020.0,   72.1, -999.0
01-02-2023, 00:37:39,    243,    1.0,    3.1,   0.00,   0.00, 1019.9,   71.9, -999.0
01-02-2023, 00:37:49,    237,    0.0,    3.1,   0.00,   0.00, 1019.9,   71.7, -999.0
01-02-2023, 00:37:59,    237,    0.3,    3.1,   0.00,   0.00, 1019.9,   71.7, -999.0
01-02-2023, 00:38:08,    238,    1.0,    3.2,   0.00,   0.00, 1020.0,   72.0, -999.0
01-02-2023, 00:38:19,    255,    1.4,    3.1,   0.00,   0.00, 1020.0,   72.0, -999.0
01-02-2023, 00:38:29,    301,    1.7,    3.2,   0.00,   0.00, 1020.0,   72.0, -999.0
01-02-2023, 00:38:39,    191,    2.9,    3.1,   0.00,   0.00, 1020.0,   72.0, -999.0
01-02-2023, 00:38:48,    259,    2.3,    3.1,   0.00,   0.00, 1020.0,   72.0, -999.0
01-02-2023, 00:38:59,    230,    2.5,    3.0,   0.00,   0.00, 1020.0,   72.0, -999.0
01-02-2023, 00:39:09,    234,    1.0,    3.1,   0.00,   0.00, 1019.9,   71.8, -999.0
01-02-2023, 00:39:18,    234,    0.0,    3.0,   0.00,   0.00, 1019.9,   71.6, -999.0
01-02-2023, 00:39:29,    238,    2.0,    3.1,   0.00,   0.00, 1020.0,   72.0, -999.0
01-02-2023, 00:39:39,    236,    0.3,    3.1,   0.00,   0.00, 1020.0,   71.8, -999.0
01-02-2023, 00:39:49,    252,    1.3,    3.1,   0.00,   0.00, 1020.0,   71.8, -999.0
01-02-2023, 00:39:58,    244,    2.8,    3.1,   0.00,   0.00, 1020.0,   72.0, -999.0
01-02-2023, 00:40:09,    260,    1.4,    3.2,   0.00,   0.00, 1020.0,   72.0, -999.0
01-02-2023, 00:40:19,    228,    3.0,    3.1,   0.00,   0.00, 1020.0,   72.0, -999.0
01-02-2023, 00:40:28,    230,    2.6,    3.1,   0.00,   0.00, 1020.0,   72.0, -999.0
01-02-2023, 00:40:38,    241,    2.5,    3.2,   0.00,   0.00, 1020.0,   71.9, -999.0
01-02-2023, 00:40:49,    257,    2.3,    3.1,   0.00,   0.00, 1020.0,   72.0, -999.0
01-02-2023, 00:40:58,    230,    1.1,    3.1,   0.00,   0.00, 1020.0,   72.0, -999.0
01-02-2023, 00:41:08,    266,    0.4,    3.1,   0.00,   0.00, 1019.9,   71.7, -999.0
01-02-2023, 00:41:19,    277,    2.0,    3.1,   0.00,   0.00, 1020.0,   72.0, -999.0
01-02-2023, 00:41:29,    245,    1.5,    3.1,   0.00,   0.00, 1020.0,   72.0, -999.0
01-02-2023, 00:41:38,    204,    1.6,    3.2,   0.00,   0.00, 1020.1,   72.0, -999.0
01-02-2023, 00:41:48,    251,    0.6,    3.1,   0.00,   0.00, 1020.0,   71.9, -999.0
01-02-2023, 00:41:59,    251,    0.2,    3.1,   0.00,   0.00, 1020.0,   71.9, -999.0
01-02-2023, 00:42:08,    257,    0.3,    3.1,   0.00,   0.00, 1020.0,   71.9, -999.0
01-02-2023, 00:42:18,    231,    0.3,    3.1,   0.00,   0.00, 1020.1,   71.9, -999.0
01-02-2023, 00:42:28,    232,    0.2,    3.0,   0.00,   0.00, 1020.0,   71.8, -999.0
01-02-2023, 00:42:39,    232,    0.0,    2.9,   0.00,   0.00, 1020.0,   71.6, -999.0
01-02-2023, 00:42:48,    245,    2.2,    3.1,   0.00,   0.00, 1020.1,   72.0, -999.0
01-02-2023, 00:42:58,    262,    3.4,    3.1,   0.00,   0.00, 1020.1,   72.0, -999.0
01-02-2023, 00:43:08,    258,    1.0,    3.1,   0.00,   0.00, 1020.1,   72.0, -999.0
01-02-2023, 00:43:18,    257,    0.1,    3.0,   0.00,   0.00, 1020.0,   71.8, -999.0
01-02-2023, 00:43:28,    249,    1.5,    3.0,   0.00,   0.00, 1020.1,   72.0, -999.0
01-02-2023, 00:43:38,    242,    1.0,    3.0,   0.00,   0.00, 1020.1,   72.1, -999.0
01-02-2023, 00:43:48,    237,    1.2,    3.0,   0.00,   0.00, 1020.1,   72.1, -999.0
01-02-2023, 00:43:58,    266,    1.9,    3.1,   0.00,   0.00, 1020.1,   72.2, -999.0
01-02-2023, 00:44:08,    221,    1.2,    3.0,   0.00,   0.00, 1020.1,   72.2, -999.0
01-02-2023, 00:44:18,    224,    0.1,    3.0,   0.00,   0.00, 1020.0,   71.9, -999.0
01-02-2023, 00:44:28,    200,    1.3,    3.1,   0.00,   0.00, 1020.1,   72.3, -999.0
01-02-2023, 00:44:38,    197,    0.8,    3.1,   0.00,   0.00, 1020.1,   72.3, -999.0
01-02-2023, 00:44:48,    246,    2.2,    3.1,   0.00,   0.00, 1020.1,   72.2, -999.0
01-02-2023, 00:44:58,    282,    3.0,    3.1,   0.00,   0.00, 1020.1,   72.2, -999.0
01-02-2023, 00:45:08,    256,    1.3,    3.2,   0.00,   0.00, 1020.1,   72.0, -999.0
01-02-2023, 00:45:18,    247,    1.5,    3.2,   0.00,   0.00, 1020.1,   72.0, -999.0
01-02-2023, 00:45:28,    229,    0.8,    3.2,   0.00,   0.00, 1020.1,   72.0, -999.0
01-02-2023, 00:45:38,    235,    1.2,    3.2,   0.00,   0.00, 1020.1,   72.0, -999.0
01-02-2023, 00:45:48,    244,    0.9,    3.1,   0.00,   0.00, 1020.1,   72.1, -999.0
01-02-2023, 00:45:58,    253,    4.0,    3.1,   0.00,   0.00, 1020.1,   72.1, -999.0
01-02-2023, 00:46:08,    266,    3.0,    3.2,   0.00,   0.00, 1020.1,   72.0, -999.0
01-02-2023, 00:46:18,    219,    2.7,    3.2,   0.00,   0.00, 1020.1,   72.0, -999.0
01-02-2023, 00:46:28,    247,    3.4,    3.2,   0.00,   0.00, 1020.1,   72.0, -999.0
01-02-2023, 00:46:38,    253,    1.1,    3.2,   0.00,   0.00, 1020.1,   72.0, -999.0
01-02-2023, 00:46:48,    228,    0.0,    3.1,   0.00,   0.00, 1020.0,   71.7, -999.0